Location: Moscow
(44.4414°N, 72.7154°W)
Time: 11:21:06
(UTC+00:00)

ISS - Pass Details

Date: 17 October 2024
Orbit: 407 x 418 km, 51.6° (Epoch: 13 November)

Event Time Altitude Azimuth Distance (km) Brightness Sun altitude
Exits shadow 09:47:50 - 197° (SSW) 1,954 -0.6 -15.2°
Reaches altitude 10° 09:49:16 10° 185° (S) 1,462 -1.1 -15.0°
Maximum altitude 09:51:45 20° 136° (SE) 1,009 -1.3 -14.5°
Drops below altitude 10° 09:54:13 10° 86° (E) 1,467 0.5 -14.1°
Sets 09:56:39 0° 69° (ENE) 2,331 1.4 -13.7°
